AAL3490 KDCA-KRDU

Flight info

Callsign AAL3490
Flight time 0h 40m
Altitude 30000
Route JDUBB4 MELTN ALDAN4
Aircraft A319/M-SDE3FGHIRWY/LB1

Departure

Time 2026-05-06 22:19
Airport Ronald Reagan Washington National Airport (KDCA)

Arrival

Time 2026-05-06 22:59
Airport Raleigh-Durham International Airport (KRDU)
Time Latitude Longitude Altitude Speed Heading
2026-05-06 21:49 38.85667 -77.04221 24 ft 0 kts 201°
2026-05-06 22:10 38.85682 -77.04220 28 ft 2 kts 160°
2026-05-06 22:10 38.85695 -77.04232 28 ft 2 kts 127°
2026-05-06 22:10 38.85703 -77.04251 28 ft 2 kts 108°
2026-05-06 22:11 38.85706 -77.04271 29 ft 2 kts 91°
2026-05-06 22:11 38.85706 -77.04280 28 ft 0 kts 80°
2026-05-06 22:14 38.85706 -77.04278 28 ft 1 kts 78°
2026-05-06 22:15 38.85710 -77.04263 28 ft 4 kts 73°
2026-05-06 22:15 38.85722 -77.04216 24 ft 7 kts 71°
2026-05-06 22:15 38.85740 -77.04149 24 ft 6 kts 71°
2026-05-06 22:15 38.85748 -77.04121 29 ft 1 kts 68°
2026-05-06 22:16 38.85749 -77.04118 28 ft 2 kts 67°
2026-05-06 22:16 38.85781 -77.04065 28 ft 11 kts 24°
2026-05-06 22:16 38.85885 -77.04067 25 ft 17 kts 353°
2026-05-06 22:16 38.85997 -77.04009 28 ft 19 kts 27°
2026-05-06 22:17 38.86039 -77.03979 25 ft 0 kts 36°
2026-05-06 22:17 38.86060 -77.03959 25 ft 8 kts 46°
2026-05-06 22:17 38.86074 -77.03875 28 ft 12 kts 139°
2026-05-06 22:18 38.86020 -77.03861 25 ft 4 kts 176°
2026-05-06 22:18 38.85768 -77.03839 26 ft 73 kts 176°
2026-05-06 22:18 38.85026 -77.03764 26 ft 140 kts 175°
2026-05-06 22:18 38.83949 -77.03633 516 ft 168 kts 179°
2026-05-06 22:19 38.82661 -77.04204 470 ft 227 kts 213°
2026-05-06 22:19 38.81246 -77.05546 885 ft 267 kts 217°
2026-05-06 22:19 38.79737 -77.06988 1626 ft 297 kts 214°
2026-05-06 22:19 38.77962 -77.08499 2245 ft 293 kts 214°
2026-05-06 22:20 38.76407 -77.09777 3120 ft 233 kts 214°
2026-05-06 22:20 38.75018 -77.10825 4094 ft 240 kts 210°
2026-05-06 22:20 38.73509 -77.11693 5027 ft 253 kts 205°
2026-05-06 22:20 38.71845 -77.12500 6153 ft 255 kts 212°
2026-05-06 22:21 38.70540 -77.13965 7134 ft 257 kts 232°
2026-05-06 22:21 38.69715 -77.16194 7147 ft 299 kts 258°
2026-05-06 22:21 38.69664 -77.19040 7159 ft 340 kts 269°
2026-05-06 22:21 38.69257 -77.21959 7157 ft 320 kts 247°
2026-05-06 22:22 38.67989 -77.24207 7166 ft 316 kts 223°
2026-05-06 22:22 38.66187 -77.25815 7169 ft 316 kts 215°
2026-05-06 22:22 38.64308 -77.27326 7163 ft 320 kts 216°
2026-05-06 22:22 38.62486 -77.28861 7165 ft 314 kts 217°
2026-05-06 22:23 38.60696 -77.30505 7193 ft 318 kts 220°
2026-05-06 22:23 38.58967 -77.32239 7200 ft 316 kts 222°
2026-05-06 22:23 38.57286 -77.34055 7293 ft 309 kts 224°
2026-05-06 22:23 38.55674 -77.35901 7793 ft 317 kts 225°
2026-05-06 22:24 38.54057 -77.37839 8289 ft 318 kts 226°
2026-05-06 22:24 38.52477 -77.39795 8794 ft 317 kts 227°
2026-05-06 22:24 38.50898 -77.41799 9316 ft 322 kts 227°
2026-05-06 22:24 38.49308 -77.43832 9825 ft 326 kts 226°
2026-05-06 22:25 38.47581 -77.45829 10308 ft 345 kts 224°
2026-05-06 22:25 38.45715 -77.47872 10785 ft 357 kts 223°
2026-05-06 22:25 38.43803 -77.49920 11266 ft 359 kts 223°
2026-05-06 22:25 38.41901 -77.51945 11750 ft 363 kts 223°
2026-05-06 22:26 38.39953 -77.54027 12256 ft 367 kts 223°
2026-05-06 22:26 38.37994 -77.56134 12769 ft 369 kts 224°
2026-05-06 22:26 38.36028 -77.58267 13278 ft 372 kts 224°
2026-05-06 22:26 38.34049 -77.60433 13794 ft 377 kts 224°
2026-05-06 22:27 38.32062 -77.62626 14256 ft 379 kts 225°
2026-05-06 22:27 38.30072 -77.64825 14726 ft 380 kts 224°
2026-05-06 22:27 38.28028 -77.66980 15208 ft 383 kts 223°
2026-05-06 22:27 38.25942 -77.69118 15696 ft 386 kts 223°
2026-05-06 22:28 38.23835 -77.71240 16337 ft 385 kts 223°
2026-05-06 22:28 38.21721 -77.73340 17100 ft 386 kts 223°
2026-05-06 22:28 38.19589 -77.75438 17893 ft 388 kts 222°
2026-05-06 22:28 38.17433 -77.77434 18607 ft 391 kts 218°
2026-05-06 22:29 38.15114 -77.79282 19320 ft 392 kts 218°
2026-05-06 22:29 38.12823 -77.81161 20032 ft 391 kts 218°
2026-05-06 22:29 38.10546 -77.83058 20777 ft 390 kts 218°
2026-05-06 22:29 38.08177 -77.84749 21532 ft 392 kts 212°
2026-05-06 22:30 38.05705 -77.86235 22306 ft 390 kts 212°
2026-05-06 22:30 38.03276 -77.87741 23097 ft 387 kts 213°
2026-05-06 22:30 38.00880 -77.89273 23726 ft 386 kts 213°
2026-05-06 22:30 37.98506 -77.90816 24159 ft 390 kts 214°
2026-05-06 22:31 37.96079 -77.92402 24591 ft 393 kts 214°
2026-05-06 22:31 37.93643 -77.94000 25038 ft 396 kts 214°
2026-05-06 22:31 37.91194 -77.95609 25489 ft 398 kts 214°
2026-05-06 22:31 37.88726 -77.97234 25946 ft 400 kts 214°
2026-05-06 22:32 37.86251 -77.98862 26411 ft 401 kts 214°
2026-05-06 22:32 37.85639 -77.99265 26526 ft 402 kts 214°
2026-05-06 22:32 37.83150 -78.00902 27004 ft 403 kts 214°
2026-05-06 22:32 37.80679 -78.02527 27481 ft 404 kts 214°
2026-05-06 22:33 37.78184 -78.04166 27973 ft 404 kts 215°
2026-05-06 22:33 37.75687 -78.05806 28470 ft 404 kts 215°
2026-05-06 22:33 37.73185 -78.07448 28984 ft 404 kts 215°
2026-05-06 22:33 37.70691 -78.09086 29493 ft 404 kts 215°
2026-05-06 22:34 37.68192 -78.10728 29840 ft 408 kts 215°
2026-05-06 22:34 37.65650 -78.12403 29959 ft 416 kts 215°
2026-05-06 22:34 37.60430 -78.15850 30030 ft 435 kts 214°
2026-05-06 22:35 37.54939 -78.19465 30043 ft 454 kts 214°
2026-05-06 22:35 37.49265 -78.23178 30052 ft 465 kts 214°
2026-05-06 22:36 37.43480 -78.26942 30055 ft 468 kts 214°
2026-05-06 22:36 37.37699 -78.30686 30060 ft 467 kts 213°
2026-05-06 22:37 37.31894 -78.34444 30059 ft 469 kts 213°
2026-05-06 22:37 37.26094 -78.38197 30065 ft 469 kts 213°
2026-05-06 22:38 37.20286 -78.41948 30060 ft 469 kts 213°
2026-05-06 22:38 37.14499 -78.45683 30065 ft 471 kts 213°
2026-05-06 22:39 37.08660 -78.49448 30065 ft 472 kts 213°
2026-05-06 22:39 37.03801 -78.52574 30082 ft 472 kts 213°
2026-05-06 22:40 37.00869 -78.54462 29780 ft 478 kts 213°
2026-05-06 22:40 36.96939 -78.56994 29063 ft 472 kts 213°
2026-05-06 22:40 36.94993 -78.58239 28696 ft 457 kts 213°
2026-05-06 22:40 36.92220 -78.60004 28174 ft 441 kts 213°
2026-05-06 22:41 36.86729 -78.63527 26820 ft 451 kts 213°
2026-05-06 22:41 36.83932 -78.65331 25957 ft 450 kts 212°
2026-05-06 22:41 36.81208 -78.67082 25142 ft 442 kts 212°
2026-05-06 22:42 36.78496 -78.68818 24327 ft 434 kts 212°
2026-05-06 22:42 36.75830 -78.70524 23540 ft 428 kts 212°
2026-05-06 22:42 36.73177 -78.72218 22607 ft 424 kts 212°
2026-05-06 22:42 36.70569 -78.73879 21703 ft 418 kts 212°
2026-05-06 22:43 36.67987 -78.75520 20816 ft 412 kts 212°
2026-05-06 22:43 36.65448 -78.77133 19962 ft 408 kts 212°
2026-05-06 22:43 36.62948 -78.78722 19136 ft 404 kts 211°
2026-05-06 22:43 36.60556 -78.80242 18357 ft 398 kts 211°
2026-05-06 22:44 36.58053 -78.81833 17445 ft 395 kts 211°
2026-05-06 22:44 36.55635 -78.83368 16546 ft 381 kts 211°
2026-05-06 22:44 36.54095 -78.84342 15966 ft 370 kts 211°
2026-05-06 22:44 36.52348 -78.85453 15432 ft 356 kts 212°
2026-05-06 22:45 36.50208 -78.86848 14928 ft 337 kts 211°
2026-05-06 22:45 36.48174 -78.88119 14481 ft 319 kts 211°
2026-05-06 22:45 36.46247 -78.89339 14039 ft 303 kts 211°
2026-05-06 22:45 36.44409 -78.90498 13597 ft 290 kts 211°
2026-05-06 22:46 36.42644 -78.91615 13120 ft 278 kts 211°
2026-05-06 22:46 36.40871 -78.92492 12531 ft 278 kts 193°
2026-05-06 22:46 36.38917 -78.92324 11852 ft 289 kts 166°
2026-05-06 22:46 36.37182 -78.91041 11226 ft 297 kts 142°
2026-05-06 22:47 36.35689 -78.89283 10698 ft 291 kts 141°
2026-05-06 22:47 36.34281 -78.87564 10426 ft 276 kts 141°
2026-05-06 22:47 36.32975 -78.85942 10164 ft 262 kts 140°
2026-05-06 22:47 36.31709 -78.84353 9871 ft 250 kts 141°
2026-05-06 22:48 36.30557 -78.82912 9142 ft 257 kts 141°
2026-05-06 22:48 36.29317 -78.81367 8761 ft 248 kts 141°
2026-05-06 22:48 36.28140 -78.79889 8256 ft 245 kts 141°
2026-05-06 22:48 36.26906 -78.78356 7585 ft 249 kts 141°
2026-05-06 22:49 36.25718 -78.76873 7352 ft 235 kts 141°
2026-05-06 22:49 36.24624 -78.75498 7089 ft 222 kts 141°
2026-05-06 22:49 36.23750 -78.74396 6813 ft 215 kts 141°
2026-05-06 22:49 36.22717 -78.73101 6357 ft 212 kts 141°
2026-05-06 22:50 36.21684 -78.71814 5889 ft 210 kts 141°
2026-05-06 22:50 36.20661 -78.70540 5443 ft 206 kts 141°
2026-05-06 22:50 36.19658 -78.69289 4990 ft 203 kts 141°
2026-05-06 22:50 36.18657 -78.68045 4501 ft 210 kts 141°
2026-05-06 22:51 36.17562 -78.66828 4222 ft 207 kts 155°
2026-05-06 22:51 36.16269 -78.66201 3870 ft 195 kts 167°
2026-05-06 22:51 36.14969 -78.65728 3489 ft 195 kts 168°
2026-05-06 22:51 36.13686 -78.65293 3247 ft 186 kts 169°
2026-05-06 22:52 36.12522 -78.64906 3102 ft 162 kts 169°
2026-05-06 22:52 36.11509 -78.64563 3035 ft 142 kts 169°
2026-05-06 22:52 36.10550 -78.64249 3020 ft 145 kts 170°
2026-05-06 22:52 36.09578 -78.63936 3019 ft 142 kts 170°
2026-05-06 22:53 36.08634 -78.63630 3016 ft 143 kts 170°
2026-05-06 22:53 36.07561 -78.63297 3003 ft 177 kts 170°
2026-05-06 22:53 36.06378 -78.62929 2978 ft 171 kts 169°
2026-05-06 22:53 36.05211 -78.62592 2999 ft 173 kts 171°
2026-05-06 22:54 36.04033 -78.62364 2981 ft 169 kts 182°
2026-05-06 22:54 36.02982 -78.62877 2991 ft 169 kts 220°
2026-05-06 22:54 36.02090 -78.63830 3004 ft 170 kts 217°
2026-05-06 22:54 36.01159 -78.64734 3004 ft 169 kts 216°
2026-05-06 22:55 36.00251 -78.65597 3015 ft 155 kts 215°
2026-05-06 22:55 35.99465 -78.66352 3013 ft 135 kts 215°
2026-05-06 22:55 35.98688 -78.67072 2809 ft 140 kts 214°
2026-05-06 22:55 35.97953 -78.67764 2647 ft 128 kts 214°
2026-05-06 22:56 35.97240 -78.68448 2488 ft 132 kts 215°
2026-05-06 22:56 35.96529 -78.69146 2297 ft 129 kts 216°
2026-05-06 22:56 35.95847 -78.69845 2112 ft 131 kts 218°
2026-05-06 22:56 35.95162 -78.70615 1978 ft 133 kts 220°
2026-05-06 22:57 35.94495 -78.71399 1819 ft 133 kts 220°
2026-05-06 22:57 35.93867 -78.72212 1597 ft 123 kts 225°
2026-05-06 22:57 35.93285 -78.73020 1368 ft 127 kts 224°
2026-05-06 22:57 35.92601 -78.73899 1384 ft 153 kts 223°
2026-05-06 22:58 35.91824 -78.74832 1275 ft 158 kts 221°
2026-05-06 22:58 35.91065 -78.75736 1024 ft 147 kts 224°
2026-05-06 22:58 35.90377 -78.76586 787 ft 134 kts 224°
2026-05-06 22:58 35.89734 -78.77369 567 ft 126 kts 226°
2026-05-06 22:59 35.89258 -78.77964 414 ft 115 kts 225°
2026-05-06 22:59 35.88880 -78.78428 408 ft 42 kts 225°
2026-05-06 22:59 35.88695 -78.78660 405 ft 36 kts 225°
2026-05-06 22:59 35.88577 -78.78719 399 ft 5 kts 135°
2026-05-06 23:00 35.88542 -78.78682 402 ft 3 kts 154°
2026-05-06 23:01 35.88513 -78.78695 401 ft 5 kts 220°
2026-05-06 23:02 35.88489 -78.78721 397 ft 4 kts 220°
2026-05-06 23:02 35.88457 -78.78756 398 ft 10 kts 223°
2026-05-06 23:02 35.88391 -78.78838 396 ft 12 kts 226°
2026-05-06 23:02 35.88344 -78.78898 391 ft 7 kts 226°
2026-05-06 23:03 35.88308 -78.78944 393 ft 8 kts 225°
2026-05-06 23:03 35.88274 -78.78984 393 ft 5 kts 224°
2026-05-06 23:03 35.88237 -78.79028 392 ft 8 kts 223°
2026-05-06 23:03 35.88203 -78.79049 392 ft 4 kts 194°
2026-05-06 23:04 35.88156 -78.79051 392 ft 11 kts 187°
2026-05-06 23:04 35.88134 -78.79060 392 ft 10 kts 205°
2026-05-06 23:04 35.88098 -78.79101 393 ft 9 kts 227°
2026-05-06 23:04 35.88059 -78.79134 392 ft 7 kts 191°
2026-05-06 23:05 35.88023 -78.79132 391 ft 4 kts 179°
2026-05-06 23:05 35.88005 -78.79133 391 ft 1 kts 187°
2026-05-06 23:05 35.87998 -78.79134 391 ft 2 kts 187°
2026-05-06 23:05 35.87986 -78.79135 391 ft 0 kts 185°